This is the latest recevied weather packets stored in our database for station/object HP1CDW-10. If no packets are shown the sender has not sent any weather packets the latest 10 day(s).
| Time | Temp. | Humidity | Pressure | Rain* | Wind** | Luminosity | Snow |
|---|---|---|---|---|---|---|---|
| 1788236126 | 33.89° C | 52% | 1005.6 hPa | - | - | - | - |
| 1788235521 | 33.89° C | 52% | 1005.5 hPa | - | - | - | - |
| 1788234916 | 33.89° C | 52% | 1005.6 hPa | - | - | - | - |
| 1788231892 | 33.89° C | 52% | 1005.6 hPa | - | - | - | - |
| 1788231288 | 33.89° C | 52% | 1005.6 hPa | - | - | - | - |
| 1788230683 | 33.89° C | 52% | 1005.6 hPa | - | - | - | - |
| 1788230078 | 33.89° C | 52% | 1005.4 hPa | - | - | - | - |
| 1788229473 | 33.89° C | 53% | 1005.3 hPa | - | - | - | - |
| 1788228868 | 33.89° C | 52% | 1005.1 hPa | - | - | - | - |
| 1788228264 | 33.89° C | 53% | 1005 hPa | - | - | - | - |
| 1788227659 | 33.89° C | 53% | 1004.8 hPa | - | - | - | - |
| 1788227054 | 34.44° C | 51% | 1004.7 hPa | - | - | - | - |
| 1788226449 | 34.44° C | 52% | 1004.5 hPa | - | - | - | - |
| 1788225845 | 33.89° C | 52% | 1004.3 hPa | - | - | - | - |
| 1788225240 | 33.89° C | 53% | 1004.1 hPa | - | - | - | - |
| 1788224635 | 33.89° C | 52% | 1004 hPa | - | - | - | - |
| 1788224030 | 33.89° C | 52% | 1003.9 hPa | - | - | - | - |
| 1788223425 | 33.89° C | 53% | 1003.8 hPa | - | - | - | - |
| 1788222821 | 34.44° C | 52% | 1003.8 hPa | - | - | - | - |
| 1788222216 | 34.44° C | 52% | 1003.5 hPa | - | - | - | - |
| 1788221611 | 33.33° C | 55% | 1003.5 hPa | - | - | - | - |
| 1788220401 | 34.44° C | 52% | 1003.5 hPa | - | - | - | - |
| 1788219797 | 34.44° C | 52% | 1003.3 hPa | - | - | - | - |
| 1788219192 | 34.44° C | 53% | 1003.2 hPa | - | - | - | - |
| 1788218587 | 34.44° C | 52% | 1003.2 hPa | - | - | - | - |
* Rain since midnight (hover to see other rain measurements)
** Current wind speed in m/s (hover to see current wind gust speed)